Location: Maiden
(35.5760°N, 81.2120°W)
Time: 21:12:57
(UTC-04:00)

ELECTRON R/B - Visible Passes

Search period start: 20 May 2018 00:00
Search period end: 30 May 2018 00:00
Orbit: 285 x 480 km, 82.9° (Epoch: 20 May)

Date Brightness Start Highest point End Pass type
(mag) Time Alt. Az. Time Alt. Az. Time Alt. Az.
20 May 7.1 22:38:51 10° NNW 22:39:49 20° NNW 22:39:49 20° NNW visible
21 May 6.7 21:43:18 10° NE 21:44:07 14° ENE 21:44:07 14° ENE visible
22 May 5.6 22:18:50 10° NNW 22:20:39 42° NNW 22:20:39 42° NNW visible
23 May 6.6 21:23:27 10° NE 21:24:40 13° ENE 21:24:51 13° E visible
24 May 4.3 21:58:31 10° N 22:00:58 81° W 22:01:17 62° SSW visible
25 May 6.8 21:03:28 10° ENE 21:04:13 11° ENE 21:05:00 10° E visible
25 May 7.6 22:36:09 10° WNW 22:36:57 11° W 22:37:41 10° WSW visible
26 May 4.2 21:37:54 10° N 21:40:22 78° E 21:41:47 23° SSE visible
27 May 7.5 22:14:50 10° WNW 22:16:14 14° W 22:17:39 10° SW visible
28 May 4.5 21:16:59 10° N 21:19:27 59° E 21:22:02 10° SSE visible
29 May 7.3 21:53:24 10° NW 21:55:11 17° W 21:57:01 10° SW visible
